HVN251 ZSPD-VVTS

Flight info

Callsign HVN251
Flight time N/A
Altitude 40100
Route NXD94D NXD W131 AKDIM/K0904S1310 A470 DUBGO W134 ELNEX A599 PLT W19 NOMAR W18 NLG W23 ZUH R200 BIGRO G221 SAMAS A202 ASSAD/K0898F430 W10 HAMIN Q1 DOVIN DOVIN6E
Aircraft A359/H-SDE2E3GHIJ3J4J5LM1ORWXY/LB1D1

Departure

Time 2026-04-30 10:50
Airport Shanghai Pudong International Airport (ZSPD)

Arrival

Time N/A
Airport Tan Son Nhat International Airport (VVTS)
Time Latitude Longitude Altitude Speed Heading
2026-04-30 10:12 31.15007 121.79704 20 ft 0 kts 70°
2026-04-30 10:34 31.15005 121.79698 18 ft 2 kts 70°
2026-04-30 10:34 31.15000 121.79680 21 ft 2 kts 72°
2026-04-30 10:34 31.14996 121.79662 20 ft 2 kts 75°
2026-04-30 10:35 31.14992 121.79643 20 ft 2 kts 79°
2026-04-30 10:35 31.14990 121.79624 21 ft 2 kts 86°
2026-04-30 10:35 31.14990 121.79605 21 ft 2 kts 102°
2026-04-30 10:35 31.14997 121.79588 22 ft 2 kts 136°
2026-04-30 10:36 31.15008 121.79579 22 ft 1 kts 159°
2026-04-30 10:36 31.15010 121.79578 21 ft 0 kts 161°
2026-04-30 10:39 31.14978 121.79586 21 ft 7 kts 174°
2026-04-30 10:39 31.14942 121.79554 20 ft 8 kts 239°
2026-04-30 10:39 31.14925 121.79507 19 ft 11 kts 251°
2026-04-30 10:40 31.14899 121.79413 19 ft 14 kts 252°
2026-04-30 10:40 31.14849 121.79312 21 ft 15 kts 203°
2026-04-30 10:40 31.14743 121.79334 20 ft 17 kts 162°
2026-04-30 10:40 31.14717 121.79344 22 ft 17 kts 162°
2026-04-30 10:41 31.14701 121.79350 20 ft 18 kts 163°
2026-04-30 10:41 31.14595 121.79391 21 ft 20 kts 161°
2026-04-30 10:41 31.14451 121.79445 19 ft 23 kts 162°
2026-04-30 10:42 31.14289 121.79507 19 ft 26 kts 162°
2026-04-30 10:42 31.14111 121.79574 21 ft 28 kts 162°
2026-04-30 10:42 31.13920 121.79646 21 ft 27 kts 162°
2026-04-30 10:42 31.13768 121.79703 20 ft 23 kts 162°
2026-04-30 10:43 31.13604 121.79766 18 ft 26 kts 161°
2026-04-30 10:43 31.13466 121.79818 18 ft 20 kts 162°
2026-04-30 10:43 31.13326 121.79870 18 ft 23 kts 162°
2026-04-30 10:43 31.13169 121.79930 17 ft 24 kts 162°
2026-04-30 10:44 31.13017 121.79986 20 ft 23 kts 162°
2026-04-30 10:44 31.12874 121.80041 20 ft 14 kts 162°
2026-04-30 10:44 31.12840 121.80054 19 ft 0 kts 162°
2026-04-30 10:45 31.12826 121.80059 19 ft 5 kts 162°
2026-04-30 10:45 31.12779 121.80067 19 ft 7 kts 189°
2026-04-30 10:45 31.12744 121.80017 22 ft 7 kts 247°
2026-04-30 10:46 31.12743 121.80013 23 ft 1 kts 247°
2026-04-30 10:46 31.12742 121.80012 21 ft 0 kts 247°
2026-04-30 10:47 31.12741 121.80008 20 ft 3 kts 247°
2026-04-30 10:47 31.12723 121.79950 20 ft 12 kts 251°
2026-04-30 10:47 31.12725 121.79883 21 ft 8 kts 318°
2026-04-30 10:47 31.12740 121.79875 21 ft 0 kts 336°
2026-04-30 10:49 31.12834 121.79837 19 ft 48 kts 342°
2026-04-30 10:49 31.13422 121.79615 18 ft 126 kts 342°
2026-04-30 10:49 31.14379 121.79272 124 ft 174 kts 345°
2026-04-30 10:50 31.15553 121.78853 927 ft 179 kts 343°
2026-04-30 10:50 31.16786 121.78417 1713 ft 196 kts 342°
2026-04-30 10:50 31.18124 121.77868 2210 ft 215 kts 339°
2026-04-30 10:50 31.19604 121.77234 2569 ft 236 kts 340°
2026-04-30 10:51 31.21197 121.76566 2920 ft 249 kts 340°
2026-04-30 10:51 31.22840 121.75887 2997 ft 251 kts 340°
2026-04-30 10:51 31.24491 121.75211 2997 ft 252 kts 340°
2026-04-30 10:51 31.26154 121.74532 2998 ft 254 kts 340°
2026-04-30 10:52 31.27824 121.73851 2992 ft 254 kts 340°
2026-04-30 10:52 31.29500 121.73169 2994 ft 254 kts 340°
2026-04-30 10:52 31.31183 121.72541 2994 ft 254 kts 346°
2026-04-30 10:52 31.32938 121.72425 2995 ft 254 kts
2026-04-30 10:53 31.34593 121.73138 2999 ft 256 kts 31°
2026-04-30 10:53 31.35858 121.74594 2999 ft 259 kts 55°
2026-04-30 10:53 31.36507 121.76533 2998 ft 262 kts 79°
2026-04-30 10:53 31.36456 121.78669 3001 ft 264 kts 97°
2026-04-30 10:54 31.36357 121.80815 3001 ft 265 kts 84°
2026-04-30 10:54 31.36587 121.82958 3000 ft 266 kts 79°
2026-04-30 10:54 31.36900 121.85091 3000 ft 267 kts 78°
2026-04-30 10:54 31.37253 121.87220 3076 ft 266 kts 76°
2026-04-30 10:55 31.37632 121.89357 3520 ft 270 kts 76°
2026-04-30 10:55 31.38012 121.91513 4379 ft 269 kts 76°
2026-04-30 10:55 31.38253 121.93655 5220 ft 272 kts 87°
2026-04-30 10:55 31.37844 121.95864 5977 ft 282 kts 113°
2026-04-30 10:56 31.36623 121.97641 6650 ft 291 kts 142°
2026-04-30 10:56 31.34776 121.98706 7310 ft 295 kts 162°
2026-04-30 10:56 31.32829 121.99420 7974 ft 299 kts 165°
2026-04-30 10:56 31.30825 122.00128 8651 ft 303 kts 165°
2026-04-30 10:57 31.28802 122.00856 9347 ft 307 kts 165°
2026-04-30 10:57 31.26752 122.01606 10030 ft 310 kts 166°
2026-04-30 10:57 31.24655 122.02378 10448 ft 323 kts 166°
2026-04-30 10:57 31.22454 122.03190 10736 ft 340 kts 166°
2026-04-30 10:58 31.20149 122.04043 11021 ft 355 kts 166°
2026-04-30 10:58 31.17748 122.04935 11298 ft 368 kts 166°
2026-04-30 10:58 31.15295 122.05921 11693 ft 378 kts 161°
2026-04-30 10:58 31.13038 122.07552 12172 ft 389 kts 141°
2026-04-30 10:59 31.11146 122.09860 12677 ft 396 kts 134°
2026-04-30 10:59 31.09345 122.12313 13147 ft 400 kts 133°
2026-04-30 10:59 31.07531 122.14799 13634 ft 404 kts 134°
2026-04-30 10:59 31.05694 122.17299 14090 ft 408 kts 134°
2026-04-30 11:00 31.03835 122.19816 14514 ft 412 kts 135°
2026-04-30 11:00 31.01966 122.22377 14928 ft 417 kts 133°
2026-04-30 11:00 31.00499 122.25278 15339 ft 427 kts 113°
2026-04-30 11:00 30.99880 122.28680 15756 ft 434 kts 93°
2026-04-30 11:01 30.99848 122.32215 16144 ft 439 kts 89°
2026-04-30 11:01 30.99905 122.35793 16538 ft 443 kts 89°
2026-04-30 11:01 30.99947 122.39395 16966 ft 446 kts 89°
2026-04-30 11:01 30.99971 122.43031 17374 ft 450 kts 90°
2026-04-30 11:02 30.99989 122.46703 17767 ft 455 kts 90°
2026-04-30 11:02 31.00005 122.50402 18166 ft 459 kts 90°
2026-04-30 11:02 31.00015 122.54138 18535 ft 463 kts 90°
2026-04-30 11:02 31.00023 122.57912 18857 ft 467 kts 91°
2026-04-30 11:03 31.00027 122.61713 19205 ft 471 kts 91°
2026-04-30 11:03 31.00031 122.65538 19567 ft 474 kts 91°
2026-04-30 11:03 31.00033 122.69397 19893 ft 478 kts 91°
2026-04-30 11:04 31.00031 122.77165 20532 ft 485 kts 91°
2026-04-30 11:04 31.00029 122.81110 20852 ft 488 kts 91°
2026-04-30 11:04 31.00025 122.85094 21161 ft 492 kts 92°
2026-04-30 11:04 31.00020 122.89106 21433 ft 496 kts 92°
2026-04-30 11:05 31.00021 122.93141 21680 ft 501 kts 91°
2026-04-30 11:05 31.00308 122.97211 21943 ft 506 kts 80°
2026-04-30 11:05 31.01275 123.01164 22222 ft 507 kts 65°
2026-04-30 11:05 31.02930 123.04774 22514 ft 505 kts 52°
2026-04-30 11:06 31.04943 123.08140 22798 ft 506 kts 49°
2026-04-30 11:06 31.07015 123.11478 23082 ft 509 kts 49°
2026-04-30 11:06 31.09074 123.14801 23419 ft 512 kts 49°
2026-04-30 11:06 31.11161 123.18186 23659 ft 516 kts 50°
2026-04-30 11:07 31.13267 123.21616 23883 ft 520 kts 50°
2026-04-30 11:07 31.15376 123.25061 24134 ft 523 kts 50°
2026-04-30 11:07 31.17494 123.28526 24382 ft 525 kts 50°
2026-04-30 11:07 31.19630 123.32024 24636 ft 528 kts 50°
2026-04-30 11:08 31.21764 123.35523 24886 ft 530 kts 50°
2026-04-30 11:08 31.23907 123.39040 25158 ft 533 kts 50°
2026-04-30 11:08 31.26065 123.42584 25465 ft 535 kts 50°
2026-04-30 11:08 31.28187 123.46073 25737 ft 538 kts 50°
2026-04-30 11:09 31.30534 123.49539 25987 ft 534 kts 40°
2026-04-30 11:09 31.33369 123.52235 26260 ft 519 kts 23°
2026-04-30 11:09 31.36541 123.53956 26517 ft 500 kts
2026-04-30 11:09 31.39871 123.54653 26787 ft 475 kts 349°
2026-04-30 11:10 31.43075 123.54335 27082 ft 451 kts 334°
2026-04-30 11:10 31.45995 123.53232 27399 ft 434 kts 322°
2026-04-30 11:10 31.48540 123.51485 27667 ft 417 kts 311°
2026-04-30 11:10 31.50784 123.49367 28063 ft 414 kts 308°
2026-04-30 11:11 31.53139 123.47358 28444 ft 426 kts 315°
2026-04-30 11:11 31.55827 123.45732 28820 ft 446 kts 324°
2026-04-30 11:11 31.58872 123.44643 29180 ft 469 kts 335°
2026-04-30 11:11 31.62197 123.44221 29507 ft 493 kts 347°
2026-04-30 11:12 31.65691 123.44578 29846 ft 518 kts 359°
2026-04-30 11:12 31.69239 123.45654 30172 ft 528 kts
2026-04-30 11:12 31.72759 123.46491 30452 ft 516 kts 354°
2026-04-30 11:12 31.76281 123.46630 30793 ft 497 kts 343°
2026-04-30 11:13 31.79641 123.46071 31137 ft 480 kts 333°
2026-04-30 11:13 31.82766 123.44899 31464 ft 463 kts 324°
2026-04-30 11:13 31.85595 123.43209 31773 ft 449 kts 315°
2026-04-30 11:13 31.88085 123.41091 32056 ft 436 kts 308°
2026-04-30 11:14 31.90231 123.38608 32334 ft 425 kts 300°
2026-04-30 11:14 31.91975 123.35897 32586 ft 417 kts 293°
2026-04-30 11:14 31.93365 123.32943 32843 ft 410 kts 286°
2026-04-30 11:14 31.94376 123.29831 33093 ft 404 kts 280°
2026-04-30 11:15 31.95004 123.26619 33325 ft 401 kts 274°
2026-04-30 11:15 31.95251 123.23365 33551 ft 399 kts 267°
2026-04-30 11:15 31.95118 123.20113 33868 ft 396 kts 261°
2026-04-30 11:15 31.94618 123.16929 34210 ft 395 kts 255°
2026-04-30 11:16 31.93762 123.13854 34485 ft 397 kts 249°
2026-04-30 11:16 31.92542 123.10911 34660 ft 402 kts 243°
2026-04-30 11:16 31.90977 123.08177 34975 ft 405 kts 236°
2026-04-30 11:16 31.89094 123.05702 35317 ft 408 kts 230°
2026-04-30 11:17 31.86947 123.03549 35625 ft 413 kts 224°
2026-04-30 11:17 31.84631 123.01535 35954 ft 414 kts 223°
2026-04-30 11:17 31.82302 122.99549 36276 ft 413 kts 223°
2026-04-30 11:17 31.79980 122.97565 36604 ft 412 kts 223°
2026-04-30 11:18 31.77660 122.95578 36930 ft 412 kts 223°
2026-04-30 11:18 31.73039 122.91611 37572 ft 411 kts 223°
2026-04-30 11:18 31.70731 122.89630 37894 ft 410 kts 223°
2026-04-30 11:19 31.68428 122.87652 38126 ft 412 kts 222°
2026-04-30 11:19 31.66090 122.85643 38176 ft 417 kts 222°
2026-04-30 11:19 31.63744 122.83631 38401 ft 416 kts 223°
2026-04-30 11:19 31.61423 122.81646 38931 ft 410 kts 222°
2026-04-30 11:20 31.59123 122.79678 39192 ft 409 kts 223°
2026-04-30 11:20 31.56816 122.77702 39325 ft 411 kts 223°
2026-04-30 11:20 31.54527 122.75741 39498 ft 412 kts 222°
2026-04-30 11:20 31.52211 122.73754 39679 ft 412 kts 223°
2026-04-30 11:21 31.50017 122.71611 39848 ft 409 kts 229°
2026-04-30 11:21 31.48095 122.69173 40011 ft 405 kts 235°
2026-04-30 11:21 31.46500 122.66477 40162 ft 403 kts 242°
2026-04-30 11:21 31.45208 122.63568 40198 ft 401 kts 246°
2026-04-30 11:22 31.42921 122.57640 40218 ft 399 kts 248°
2026-04-30 11:22 31.40700 122.51663 40222 ft 401 kts 248°
2026-04-30 11:23 31.38449 122.45678 40216 ft 401 kts 248°
2026-04-30 11:24 31.35048 122.36755 40208 ft 401 kts 247°
2026-04-30 11:24 31.32764 122.30789 40215 ft 404 kts 248°
2026-04-30 11:25 31.29704 122.22812 40216 ft 402 kts 248°
2026-04-30 11:26 31.25116 122.10878 40215 ft 402 kts 248°
2026-04-30 11:26 31.22816 122.04910 40207 ft 403 kts 248°
2026-04-30 11:27 31.20503 121.98916 40211 ft 406 kts 248°
2026-04-30 11:27 31.18194 121.92945 40176 ft 406 kts 248°
2026-04-30 11:28 31.14717 121.83978 40175 ft 403 kts 248°
2026-04-30 11:29 31.12399 121.78010 40187 ft 403 kts 248°
2026-04-30 11:29 31.08905 121.69028 40178 ft 406 kts 248°
2026-04-30 11:30 31.05409 121.60068 40175 ft 406 kts 248°
2026-04-30 11:31 31.03080 121.54111 40174 ft 403 kts 248°
2026-04-30 11:31 31.00753 121.48171 40185 ft 402 kts 249°
2026-04-30 11:32 30.98422 121.42224 40181 ft 403 kts 249°
2026-04-30 11:32 30.96085 121.36278 40185 ft 404 kts 249°
2026-04-30 11:33 30.92585 121.27389 40190 ft 404 kts 249°
2026-04-30 11:33 30.90236 121.21435 40153 ft 405 kts 249°
2026-04-30 11:34 30.87883 121.15479 40195 ft 404 kts 249°
2026-04-30 11:34 30.85531 121.09541 40199 ft 403 kts 249°
2026-04-30 11:35 30.83180 121.03610 40202 ft 404 kts 249°
2026-04-30 11:35 30.80826 120.97682 40202 ft 404 kts 249°
2026-04-30 11:36 30.78480 120.91785 40206 ft 406 kts 250°
2026-04-30 11:36 30.76101 120.85812 40193 ft 407 kts 250°
2026-04-30 11:37 30.73726 120.79864 40197 ft 404 kts 250°
2026-04-30 11:37 30.71360 120.73949 40201 ft 402 kts 250°
2026-04-30 11:38 30.68999 120.68049 40202 ft 402 kts 250°
2026-04-30 11:38 30.66649 120.62186 40204 ft 403 kts 250°
2026-04-30 11:39 30.64284 120.56298 40204 ft 403 kts 250°
2026-04-30 11:39 30.61911 120.50400 40205 ft 403 kts 250°
2026-04-30 11:40 30.59541 120.44524 40203 ft 399 kts 250°
2026-04-30 11:40 30.57196 120.38717 40214 ft 397 kts 250°
2026-04-30 11:41 30.54849 120.32908 40207 ft 398 kts 250°
2026-04-30 11:41 30.52505 120.27113 40203 ft 399 kts 250°
2026-04-30 11:42 30.50163 120.21338 40207 ft 399 kts 250°
2026-04-30 11:42 30.47798 120.15517 40208 ft 399 kts 250°
2026-04-30 11:43 30.45274 120.09766 40193 ft 404 kts 245°
2026-04-30 11:43 30.41707 120.04659 40208 ft 417 kts 232°
2026-04-30 11:44 30.39425 120.02506 40204 ft 428 kts 225°
2026-04-30 11:44 30.36939 120.00628 40207 ft 433 kts 223°
2026-04-30 11:44 30.31692 119.97115 40207 ft 437 kts 220°
2026-04-30 11:45 30.26363 119.93679 40204 ft 437 kts 220°
2026-04-30 11:45 30.21069 119.90215 40203 ft 437 kts 221°
2026-04-30 11:46 30.15792 119.86721 40214 ft 437 kts 221°
2026-04-30 11:46 30.14936 119.86152 40206 ft 437 kts 221°
2026-04-30 11:47 30.14050 119.85563 40212 ft 437 kts 221°